Weather History for Peru, IN

Change the Weather History Date:

Thursday, October 24, 2013

  Actual Average Record
Temperature  
Mean Temperature 36 °F -  
Max Temperature 43 °F 58 °F 77 °F (2012)
Min Temperature 30 °F 41 °F 30 °F (2006)
Degree Days  
Heating Degree Days 29    
Moisture  
Dew Point 31 °F    
Average Humidity 77    
Maximum Humidity 92    
Minimum Humidity 54    
Precipitation  
Precipitation 0.00 in - - ()
Sea Level Pressure  
Sea Level Pressure 30.13 in    
Wind  
Wind Speed 11 mph (WNW)    
Max Wind Speed 14 mph    
Max Gust Speed -    
Visibility 10 miles    
Events Rain    
Averages and records for this station are not official NWS values.
T = Trace of Precipitation, MM = Missing Value Source: NWS Daily Summary

Daily Weather History Graph

Daily Weather History Graph

Search for Another Location

Airport:

Trip Planner

Search our weather history database for the weather conditions in past years. The results will help you decide how hot, cold, wet, or windy it might be!

Date:

Astronomy

Oct. 24, 2013 Rise Set
Actual Time 8:05 AM EDT 6:50 PM EDT
Civil Twilight 7:37 AM EDT 7:18 PM EDT
Nautical Twilight 7:05 AM EDT 7:50 PM EDT
Astronomical Twilight 6:34 AM EDT 8:22 PM EDT
Moon 11:14 PM EDT 1:07 PM EDT
Length of Visible Light 11h 40m
Length of Day
10h 45m
Waning Gibbous, 71% of the Moon is Illuminated
Oct 24
Waning Gibbous
Oct 26
Last Quarter
Nov 3
New
Nov 10
First Quarter
Nov 17
Full

Hourly Weather History & Observations

Time (EDT) Temp. Windchill Dew Point Humidity Pressure Visibility Wind Dir Wind Speed Gust Speed Precip Events Conditions
12:58 AM 37.9 °F 30.0 °F 32.4 °F 80% 30.04 in 10.0 mi West 12.7 mph - N/A   Overcast
1:58 AM 37.9 °F 30.5 °F 32.4 °F 80% 30.05 in 10.0 mi West 11.5 mph - N/A   Overcast
2:09 AM 37.4 °F 30.3 °F 32.0 °F 81% 30.02 in 10.0 mi West 10.4 mph - N/A Rain Light Rain
2:24 AM 37.4 °F 30.8 °F 32.0 °F 81% 30.02 in 10.0 mi West 9.2 mph - N/A   Overcast
2:58 AM 37.2 °F 30.0 °F 33.3 °F 86% 30.05 in 10.0 mi West 10.4 mph - 0.00 in   Overcast
3:58 AM 36.7 °F 29.4 °F 33.3 °F 87% 30.05 in 10.0 mi West 10.4 mph - N/A   Overcast
4:58 AM 36.3 °F 28.9 °F 33.1 °F 88% 30.04 in 10.0 mi West 10.4 mph - N/A   Overcast
5:58 AM 36.1 °F 28.2 °F 33.1 °F 89% 30.06 in 10.0 mi West 11.5 mph - N/A   Overcast
6:58 AM 35.6 °F 28.6 °F 33.3 °F 91% 30.07 in 10.0 mi West 9.2 mph - N/A   Overcast
7:58 AM 35.4 °F 28.4 °F 33.3 °F 92% 30.08 in 10.0 mi West 9.2 mph - N/A   Overcast
8:58 AM 36.3 °F 28.9 °F 34.2 °F 92% 30.09 in 10.0 mi West 10.4 mph - N/A   Overcast
9:58 AM 37.6 °F 30.0 °F 35.2 °F 91% 30.12 in 10.0 mi West 11.5 mph - N/A   Overcast
10:30 AM 39.2 °F 32.5 °F 35.6 °F 87% 30.09 in 10.0 mi West 10.4 mph - N/A   Overcast
10:55 AM 39.2 °F 32.0 °F 33.8 °F 81% 30.10 in 10.0 mi West 11.5 mph - N/A   Overcast
10:58 AM 38.8 °F 32.1 °F 34.3 °F 84% 30.13 in 10.0 mi West 10.4 mph - N/A   Overcast
11:26 AM 39.2 °F 32.5 °F 32.0 °F 75% 30.11 in 10.0 mi West 10.4 mph - N/A   Overcast
11:31 AM 39.2 °F 32.0 °F 33.8 °F 81% 30.11 in 10.0 mi WNW 11.5 mph - N/A   Overcast
11:36 AM 39.2 °F 31.6 °F 32.0 °F 75% 30.11 in 10.0 mi WNW 12.7 mph - N/A   Overcast
11:58 AM 40.1 °F 32.4 °F 33.3 °F 77% 30.14 in 10.0 mi WNW 13.8 mph - N/A   Overcast
12:08 PM 41.0 °F 34.7 °F 32.0 °F 70% 30.11 in 10.0 mi West 10.4 mph - N/A   Overcast
12:43 PM 41.0 °F 35.2 °F 32.0 °F 70% 30.12 in 10.0 mi West 9.2 mph - N/A   Overcast
12:48 PM 41.0 °F 34.3 °F 32.0 °F 70% 30.12 in 10.0 mi WNW 11.5 mph - N/A   Overcast
12:58 PM 41.0 °F 34.7 °F 31.6 °F 69% 30.15 in 10.0 mi WNW 10.4 mph - N/A   Overcast
1:03 PM 41.0 °F 34.7 °F 32.0 °F 70% 30.12 in 10.0 mi WNW 10.4 mph - N/A   Overcast
1:08 PM 41.0 °F 33.9 °F 32.0 °F 70% 30.12 in 10.0 mi NW 12.7 mph - N/A   Overcast
1:58 PM 42.3 °F 35.9 °F 28.0 °F 57% 30.15 in 10.0 mi West 11.5 mph - N/A   Overcast
2:58 PM 42.4 °F 36.5 °F 28.8 °F 58% 30.15 in 10.0 mi WNW 10.4 mph - N/A   Overcast
3:20 PM 41.0 °F 33.9 °F 28.4 °F 61% 30.13 in 10.0 mi NNW 12.7 mph - N/A Rain Light Rain
3:55 PM 39.2 °F 34.2 °F 32.0 °F 75% 30.17 in 10.0 mi North 6.9 mph - 0.00 in   Overcast
4:59 PM 40.3 °F 34.4 °F 30.2 °F 67% 30.19 in 10.0 mi WNW 9.2 mph - N/A   Overcast
5:58 PM 40.3 °F 33.9 °F 27.3 °F 60% 30.20 in 10.0 mi WNW 10.4 mph - N/A   Overcast
6:58 PM 39.0 °F 32.3 °F 23.7 °F 54% 30.23 in 10.0 mi NW 10.4 mph - N/A   Scattered Clouds
7:58 PM 35.1 °F 30.1 °F 25.2 °F 67% 30.25 in 10.0 mi West 5.8 mph - N/A   Clear
8:58 PM 30.4 °F 24.5 °F 25.7 °F 83% 30.28 in 10.0 mi West 5.8 mph - N/A   Clear
9:58 PM 30.0 °F 23.2 °F 25.9 °F 85% 30.29 in 10.0 mi West 6.9 mph - N/A   Clear
10:58 PM 31.8 °F 24.6 °F 26.8 °F 82% 30.30 in 10.0 mi WNW 8.1 mph - N/A   Clear
11:58 PM 30.6 °F 23.8 °F 26.1 °F 83% 30.30 in 10.0 mi WNW 6.9 mph - N/A   Clear